STARLINK-5015 (53931 NORAD) Tracking and Keplerian Element Data

This shows tracking and keplerian element data for the satellite.

Feedback or suggestion? Click here.




ElementValue
Catalog53931
NameSTARLINK-5015
Epoch Orbit130
Epoch Day324.91667824
Epoch Year2022
RAAN331.1197
Inclination53.2138
Eccentricity0.0004024
Argument of Perigee2.6177
Mean Anonmoly22.8908
Mean Motion15.73156205
Decay Rate-0.00012159
L11 53931U 22119AX 22324.91667824 -.00012159 00000+0 -82426-4 0 9997
L22 53931 53.2138 331.1197 0004024 2.6177 22.8908 15.73156205 1301



Live tracking and technical data element details for STARLINK-5015 (NORAD 53931). STARLINK-5015 can be tracked NOW for your location showing map with azimuth and elevation plus other details from your city location.







IsCatalogInMostPopularTable: catalog: 53931, numindb: 1
Update: records affected: 1



GetName: 53931 STARLINK-5015

Hit Count: updated at: Mon, 28 Nov 2022 21:39:34 GMT